Location: Unspecified
(58.9933°N, 5.6375°E)
Time: 21:07:48
(UTC+02:00)

CZ-3 Stage 3 - Visible Passes

Search period start: 01 September 2014 00:00
Search period end: 11 September 2014 00:00
Orbit: 411 x 34838 km, 30.7° (Epoch: 30 August)

Date Brightness Start Highest point End Pass type
(mag) Time Alt. Az. Time Alt. Az. Time Alt. Az.
02 Sep 8.2 07:08:10 10° SSW 08:31:40 20° S 08:47:11 10° SE visible
05 Sep 8.1 06:58:51 10° SSW 08:30:00 21° S 08:45:24 10° SE visible
08 Sep 8.1 06:49:25 10° SSW 08:28:12 22° S 08:43:28 10° SE visible
09 Sep 8.7 03:58:41 10° SE 04:29:51 11° SE 04:48:20 10° SE visible
